This is the latest recevied weather packets stored in our database for station/object KE8GJZ-2. If no packets are shown the sender has not sent any weather packets the latest 10 day(s).
| Time | Temp. | Humidity | Pressure | Rain* | Wind** | Luminosity | Snow |
|---|---|---|---|---|---|---|---|
| 1778097413 | 12.22° C | 44% | 1012.8 hPa | 0 mm | - | 453 W/m² | - |
| 1778097110 | 12.22° C | 43% | 1013 hPa | 0 mm | - | 596 W/m² | - |
| 1778096807 | 12.22° C | 43% | 1013.1 hPa | 0 mm | - | 564 W/m² | - |
| 1778096503 | 11.67° C | 43% | 1012.9 hPa | 0 mm | - | 745 W/m² | - |
| 1778096201 | 11.67° C | 48% | 1013 hPa | 0 mm | - | 197 W/m² | - |
| 1778095898 | 11.67° C | 47% | 1012.8 hPa | 0 mm | - | 609 W/m² | - |
| 1778095595 | 12.78° C | 43% | 1013.1 hPa | 0 mm | - | 425 W/m² | - |
| 1778095291 | 11.67° C | 46% | 1012.9 hPa | 0 mm | - | 565 W/m² | - |
| 1778094988 | 11.67° C | 42% | 1013.1 hPa | 0 mm | - | 424 W/m² | - |
| 1778094684 | 11.67° C | 42% | 1013.1 hPa | 0 mm | - | 677 W/m² | - |
| 1778094381 | 11.67° C | 46% | 1012.9 hPa | 0 mm | - | 296 W/m² | - |
| 1778094078 | 11.67° C | 43% | 1012.7 hPa | 0 mm | - | 552 W/m² | - |
| 1778093775 | 11.67° C | 43% | 1012.9 hPa | 0 mm | - | 445 W/m² | - |
| 1778093471 | 12.22° C | 42% | 1013.1 hPa | 0 mm | - | 734 W/m² | - |
| 1778093169 | 11.67° C | 45% | 1013.1 hPa | 0 mm | - | 702 W/m² | - |
| 1778092866 | 11.67° C | 44% | 1013 hPa | 0 mm | - | 707 W/m² | - |
| 1778092562 | 11.67° C | 45% | 1013.1 hPa | 0 mm | - | 581 W/m² | - |
| 1778092258 | 11.67° C | 45% | 1013.2 hPa | 0 mm | - | 321 W/m² | - |
| 1778091956 | 12.22° C | 45% | 1012.9 hPa | 0 mm | - | 362 W/m² | - |
| 1778091653 | 11.67° C | 44% | 1013.2 hPa | 0 mm | - | 691 W/m² | - |
| 1778091351 | 11.67° C | 46% | 1013.1 hPa | 0 mm | - | 812 W/m² | - |
| 1778091047 | 11.67° C | 46% | 1013.1 hPa | 0 mm | - | 745 W/m² | - |
| 1778090744 | 11.67° C | 44% | 1013.1 hPa | 0 mm | - | 153 W/m² | - |
| 1778090441 | 12.22° C | 45% | 1013.2 hPa | 0 mm | - | 350 W/m² | - |
| 1778090137 | 11.67° C | 45% | 1013.1 hPa | 0 mm | - | 818 W/m² | - |
* Rain latest hour (hover to see other rain measurements)
** Current wind speed in m/s (hover to see current wind gust speed)